Time,TemperatureF,DewpointF,PressureIn,WindDirection,WindDirectionDegrees,WindSpeedMPH,WindSpeedGustMPH,Humidity,HourlyPrecipIn,Conditions,Clouds,dailyrainin,SoftwareType,DateUTC
2013-02-19 00:02:00,46.0,42.0,-100.00,SSE,155,11.0,21.0,88,0.00,,,-99.99,,2013-02-19 05:02:00,
2013-02-19 00:12:00,45.0,43.0,-100.00,SSE,165,9.0,16.0,90,0.00,,,-99.99,,2013-02-19 05:12:00,
2013-02-19 00:22:00,45.0,43.0,-100.00,SSE,165,9.0,16.0,90,0.00,,,-99.99,,2013-02-19 05:22:00,
2013-02-19 00:32:00,45.0,44.0,-100.00,South,190,7.0,23.0,94,1.10,,,-99.99,,2013-02-19 05:32:00,
2013-02-19 00:43:00,45.0,44.0,-100.00,SSE,160,9.0,17.0,95,0.00,,,-99.99,,2013-02-19 05:43:00,
2013-02-19 00:52:00,45.0,44.0,-100.00,South,190,13.0,22.0,96,0.00,,,-99.99,,2013-02-19 05:52:00,
2013-02-19 01:03:00,45.0,44.0,-100.00,South,175,12.0,23.0,96,0.55,,,-99.99,,2013-02-19 06:03:00,
2013-02-19 01:12:00,45.0,44.0,-100.00,South,180,11.0,22.0,96,0.00,,,-99.99,,2013-02-19 06:12:00,
2013-02-19 01:22:00,45.0,44.0,-100.00,South,175,10.0,24.0,96,0.00,,,-99.99,,2013-02-19 06:22:00,
2013-02-19 01:32:00,45.0,44.0,-100.00,South,180,11.0,21.0,96,0.00,,,-99.99,,2013-02-19 06:32:00,
2013-02-19 01:42:00,44.0,44.0,-100.00,South,180,12.0,23.0,96,0.55,,,-99.99,,2013-02-19 06:42:00,
2013-02-19 01:52:00,44.0,44.0,-100.00,South,170,10.0,19.0,97,2.24,,,-99.99,,2013-02-19 06:52:00,
2013-02-19 02:02:00,44.0,44.0,-100.00,South,185,10.0,25.0,97,1.69,,,-99.99,,2013-02-19 07:02:00,
2013-02-19 02:11:00,44.0,43.0,-100.00,South,175,9.0,21.0,97,1.69,,,-99.99,,2013-02-19 07:11:00,
2013-02-19 02:22:00,44.0,43.0,-100.00,SSE,165,10.0,22.0,98,2.24,,,-99.99,,2013-02-19 07:22:00,
2013-02-19 02:32:00,44.0,43.0,-100.00,SSE,150,9.0,25.0,98,2.24,,,-99.99,,2013-02-19 07:32:00,
2013-02-19 02:42:00,44.0,43.0,-100.00,SSE,165,11.0,20.0,98,0.00,,,-99.99,,2013-02-19 07:42:00,
2013-02-19 02:52:00,44.0,43.0,-100.00,SSE,165,11.0,20.0,98,0.00,,,-99.99,,2013-02-19 07:52:00,
2013-02-19 03:02:00,44.0,43.0,-100.00,SSE,160,12.0,22.0,98,1.69,,,-99.99,,2013-02-19 08:02:00,
2013-02-19 03:11:00,44.0,43.0,-100.00,SSE,160,12.0,22.0,98,1.69,,,-99.99,,2013-02-19 08:11:00,
2013-02-19 03:21:00,44.0,44.0,-100.00,South,190,12.0,22.0,98,0.00,,,-99.99,,2013-02-19 08:21:00,
2013-02-19 03:32:00,44.0,44.0,-100.00,South,180,9.0,22.0,98,0.00,,,-99.99,,2013-02-19 08:32:00,
2013-02-19 03:42:00,44.0,44.0,-100.00,South,180,16.0,25.0,99,0.00,,,-99.99,,2013-02-19 08:42:00,
2013-02-19 03:52:00,42.0,41.0,-100.00,WSW,245,23.0,31.0,95,0.00,,,-99.99,,2013-02-19 08:52:00,
2013-02-19 04:02:00,41.0,40.0,-100.00,WSW,240,21.0,29.0,94,0.00,,,-99.99,,2013-02-19 09:02:00,
2013-02-19 04:11:00,39.0,38.0,-100.00,West,265,22.0,31.0,95,0.00,,,-99.99,,2013-02-19 09:11:00,
2013-02-19 04:22:00,38.0,36.0,-100.00,WSW,255,24.0,29.0,94,0.00,,,-99.99,,2013-02-19 09:22:00,
2013-02-19 04:32:00,37.0,36.0,-100.00,West,260,23.0,34.0,94,0.00,,,-99.99,,2013-02-19 09:32:00,
2013-02-19 04:42:00,37.0,36.0,-100.00,WSW,245,17.0,31.0,94,0.00,,,-99.99,,2013-02-19 09:42:00,
2013-02-19 04:52:00,37.0,36.0,-100.00,WSW,250,15.0,28.0,95,0.00,,,-99.99,,2013-02-19 09:52:00,
2013-02-19 05:02:00,37.0,36.0,-100.00,WSW,250,15.0,28.0,95,0.00,,,-99.99,,2013-02-19 10:02:00,
2013-02-19 05:11:00,36.0,35.0,-100.00,WSW,245,17.0,26.0,97,0.00,,,-99.99,,2013-02-19 10:11:00,
2013-02-19 05:22:00,35.0,35.0,-100.00,WSW,240,15.0,22.0,98,0.00,,,-99.99,,2013-02-19 10:22:00,
2013-02-19 05:32:00,34.0,34.0,-100.00,WSW,245,14.0,24.0,99,0.00,,,-99.99,,2013-02-19 10:32:00,
2013-02-19 05:42:00,34.0,34.0,-100.00,WSW,245,14.0,24.0,99,0.00,,,-99.99,,2013-02-19 10:42:00,
2013-02-19 05:51:00,33.0,33.0,-100.00,SW,220,20.0,26.0,98,0.00,,,-99.99,,2013-02-19 10:51:00,
2013-02-19 06:01:00,33.0,32.0,-100.00,SW,235,17.0,25.0,97,0.00,,,-99.99,,2013-02-19 11:01:00,
2013-02-19 06:11:00,32.0,31.0,-100.00,WSW,240,22.0,29.0,95,0.00,,,-99.99,,2013-02-19 11:11:00,
2013-02-19 06:22:00,32.0,31.0,-100.00,WSW,245,24.0,30.0,95,0.00,,,-99.99,,2013-02-19 11:22:00,
2013-02-19 06:32:00,31.0,30.0,-100.00,WSW,245,20.0,29.0,94,0.00,,,-99.99,,2013-02-19 11:32:00,
2013-02-19 06:42:00,30.0,29.0,-100.00,SW,235,19.0,29.0,94,0.00,,,-99.99,,2013-02-19 11:42:00,
2013-02-19 06:52:00,30.0,28.0,-100.00,WSW,240,24.0,32.0,94,0.00,,,-99.99,,2013-02-19 11:52:00,
2013-02-19 07:02:00,29.0,28.0,-100.00,WSW,250,19.0,29.0,94,0.00,,,-99.99,,2013-02-19 12:02:00,
2013-02-19 07:12:00,29.0,27.0,-100.00,WSW,250,23.0,35.0,94,0.00,,,-99.99,,2013-02-19 12:12:00,
2013-02-19 07:22:00,28.0,26.0,-100.00,West,260,21.0,32.0,91,0.00,,,-99.99,,2013-02-19 12:22:00,
2013-02-19 07:32:00,28.0,26.0,-100.00,WSW,255,19.0,32.0,91,0.00,,,-99.99,,2013-02-19 12:32:00,
2013-02-19 07:42:00,27.0,25.0,-100.00,WSW,250,21.0,31.0,90,0.00,,,-99.99,,2013-02-19 12:42:00,
2013-02-19 07:52:00,27.0,24.0,-100.00,WSW,245,22.0,34.0,90,0.00,,,-99.99,,2013-02-19 12:52:00,
2013-02-19 08:02:00,26.0,24.0,-100.00,WSW,240,21.0,34.0,89,0.00,,,-99.99,,2013-02-19 13:02:00,
2013-02-19 08:11:00,26.0,23.0,-100.00,WSW,255,19.0,24.0,89,0.00,,,-99.99,,2013-02-19 13:11:00,
2013-02-19 08:22:00,26.0,23.0,-100.00,WSW,245,16.0,25.0,89,0.00,,,-99.99,,2013-02-19 13:22:00,
2013-02-19 08:32:00,26.0,24.0,-100.00,WSW,255,17.0,25.0,90,0.00,,,-99.99,,2013-02-19 13:32:00,
2013-02-19 08:42:00,26.0,24.0,-100.00,WSW,240,18.0,25.0,90,0.00,,,-99.99,,2013-02-19 13:42:00,
2013-02-19 08:52:00,26.0,22.0,-100.00,WSW,240,21.0,32.0,84,0.55,,,-99.99,,2013-02-19 13:52:00,
2013-02-19 09:02:00,26.0,22.0,-100.00,WSW,240,18.0,24.0,84,0.00,,,-99.99,,2013-02-19 14:02:00,
2013-02-19 09:12:00,26.0,21.0,-100.00,SW,230,19.0,26.0,84,0.55,,,-99.99,,2013-02-19 14:12:00,
2013-02-19 09:22:00,26.0,22.0,-100.00,SW,225,18.0,25.0,85,1.69,,,-99.99,,2013-02-19 14:22:00,
2013-02-19 09:33:00,25.0,22.0,-100.00,SW,225,13.0,25.0,88,2.24,,,-99.99,,2013-02-19 14:33:00,
2013-02-19 09:42:00,25.0,23.0,-100.00,WSW,250,15.0,23.0,90,1.69,,,-99.99,,2013-02-19 14:42:00,
2013-02-19 09:52:00,25.0,23.0,-100.00,WSW,245,12.0,21.0,91,1.10,,,-99.99,,2013-02-19 14:52:00,
2013-02-19 10:02:00,25.0,23.0,-100.00,WSW,240,14.0,21.0,91,1.69,,,-99.99,,2013-02-19 15:02:00,
2013-02-19 10:11:00,24.0,22.0,-100.00,SW,230,17.0,26.0,91,1.10,,,-99.99,,2013-02-19 15:11:00,
2013-02-19 10:21:00,24.0,21.0,-100.00,WSW,245,17.0,30.0,87,2.24,,,-99.99,,2013-02-19 15:21:00,
2013-02-19 10:32:00,24.0,21.0,-100.00,WSW,240,15.0,25.0,87,3.39,,,-99.99,,2013-02-19 15:32:00,
2013-02-19 10:42:00,24.0,21.0,-100.00,SW,230,17.0,24.0,88,1.69,,,-99.99,,2013-02-19 15:42:00,
2013-02-19 10:52:00,23.0,21.0,-100.00,SW,220,17.0,25.0,90,5.67,,,-99.99,,2013-02-19 15:52:00,
2013-02-19 11:02:00,22.0,20.0,-100.00,SW,220,16.0,24.0,91,4.53,,,-99.99,,2013-02-19 16:02:00,
2013-02-19 11:11:00,22.0,20.0,-100.00,SW,230,18.0,28.0,90,6.22,,,-99.99,,2013-02-19 16:11:00,
2013-02-19 11:22:00,23.0,19.0,-100.00,WSW,245,17.0,29.0,85,0.55,,,-99.99,,2013-02-19 16:22:00,
2013-02-19 11:32:00,22.0,18.0,-100.00,WSW,245,22.0,34.0,84,6.22,,,-99.99,,2013-02-19 16:32:00,
2013-02-19 11:42:00,22.0,17.0,-100.00,SW,235,21.0,29.0,83,1.10,,,-99.99,,2013-02-19 16:42:00,
2013-02-19 11:51:00,22.0,18.0,-100.00,WSW,245,16.0,29.0,83,0.55,,,-99.99,,2013-02-19 16:51:00,
2013-02-19 12:01:00,22.0,18.0,-100.00,WSW,245,16.0,29.0,83,0.55,,,-99.99,,2013-02-19 17:01:00,
2013-02-19 12:11:00,22.0,17.0,-100.00,WSW,245,17.0,29.0,78,0.00,,,-99.99,,2013-02-19 17:11:00,
2013-02-19 12:21:00,23.0,16.0,-100.00,WSW,245,22.0,29.0,73,0.00,,,-99.99,,2013-02-19 17:21:00,
2013-02-19 12:32:00,23.0,16.0,-100.00,WSW,245,22.0,29.0,73,0.00,,,-99.99,,2013-02-19 17:32:00,
2013-02-19 12:42:00,22.0,14.0,-100.00,WSW,240,24.0,33.0,69,0.00,,,-99.99,,2013-02-19 17:42:00,
2013-02-19 12:52:00,23.0,15.0,-100.00,WSW,255,21.0,29.0,70,0.55,,,-99.99,,2013-02-19 17:52:00,
2013-02-19 13:02:00,23.0,15.0,-100.00,WSW,255,21.0,29.0,70,0.55,,,-99.99,,2013-02-19 18:02:00,
2013-02-19 13:11:00,22.0,14.0,-100.00,WSW,250,25.0,33.0,69,0.00,,,-99.99,,2013-02-19 18:11:00,
2013-02-19 13:21:00,23.0,14.0,-100.00,WSW,245,24.0,35.0,68,0.00,,,-99.99,,2013-02-19 18:21:00,
2013-02-19 13:32:00,23.0,15.0,-100.00,WSW,250,24.0,35.0,68,0.00,,,-99.99,,2013-02-19 18:32:00,
2013-02-19 13:42:00,23.0,16.0,-100.00,West,260,16.0,27.0,73,0.00,,,-99.99,,2013-02-19 18:42:00,
2013-02-19 13:51:00,22.0,15.0,-100.00,West,270,23.0,31.0,72,0.55,,,-99.99,,2013-02-19 18:51:00,
2013-02-19 14:01:00,22.0,15.0,-100.00,West,270,23.0,31.0,72,0.55,,,-99.99,,2013-02-19 19:01:00,
2013-02-19 14:11:00,21.0,15.0,-100.00,SW,235,19.0,27.0,78,0.00,,,-99.99,,2013-02-19 19:11:00,
2013-02-19 14:21:00,20.0,15.0,-100.00,WSW,245,22.0,28.0,78,0.55,,,-99.99,,2013-02-19 19:21:00,
2013-02-19 14:32:00,21.0,16.0,-100.00,WSW,240,16.0,27.0,79,0.00,,,-99.99,,2013-02-19 19:32:00,
2013-02-19 14:42:00,21.0,15.0,-100.00,WSW,245,19.0,32.0,77,0.00,,,-99.99,,2013-02-19 19:42:00,
2013-02-19 14:51:00,21.0,15.0,-100.00,WSW,245,19.0,32.0,77,0.00,,,-99.99,,2013-02-19 19:51:00,
2013-02-19 15:02:00,21.0,15.0,-100.00,WSW,245,17.0,25.0,76,0.00,,,-99.99,,2013-02-19 20:02:00,
2013-02-19 15:12:00,20.0,14.0,-100.00,WSW,245,19.0,29.0,75,0.00,,,-99.99,,2013-02-19 20:12:00,
2013-02-19 15:21:00,20.0,14.0,-100.00,WSW,245,19.0,29.0,75,0.00,,,-99.99,,2013-02-19 20:21:00,
2013-02-19 15:32:00,20.0,14.0,-100.00,WSW,255,21.0,29.0,75,0.55,,,-99.99,,2013-02-19 20:32:00,
2013-02-19 15:42:00,20.0,13.0,-100.00,WSW,245,21.0,31.0,72,0.55,,,-99.99,,2013-02-19 20:42:00,
2013-02-19 15:52:00,20.0,12.0,-100.00,WSW,250,23.0,30.0,69,0.55,,,-99.99,,2013-02-19 20:52:00,
2013-02-19 16:02:00,20.0,12.0,-100.00,WSW,250,21.0,30.0,68,0.00,,,-99.99,,2013-02-19 21:02:00,
2013-02-19 16:11:00,20.0,12.0,-100.00,West,260,21.0,31.0,69,0.00,,,-99.99,,2013-02-19 21:11:00,
2013-02-19 16:21:00,20.0,12.0,-100.00,West,260,19.0,30.0,70,0.55,,,-99.99,,2013-02-19 21:21:00,
2013-02-19 16:32:00,20.0,13.0,-100.00,WSW,250,14.0,25.0,73,0.00,,,-99.99,,2013-02-19 21:32:00,
2013-02-19 16:42:00,20.0,13.0,-100.00,WSW,245,16.0,26.0,76,1.10,,,-99.99,,2013-02-19 21:42:00,
2013-02-19 16:51:00,20.0,13.0,-100.00,WSW,245,17.0,24.0,76,0.00,,,-99.99,,2013-02-19 21:51:00,
2013-02-19 17:02:00,20.0,13.0,-100.00,West,260,22.0,29.0,73,0.00,,,-99.99,,2013-02-19 22:02:00,
2013-02-19 17:11:00,20.0,13.0,-100.00,WSW,255,16.0,28.0,76,0.00,,,-99.99,,2013-02-19 22:11:00,
2013-02-19 17:21:00,19.0,13.0,-100.00,West,260,19.0,27.0,78,0.00,,,-99.99,,2013-02-19 22:21:00,
2013-02-19 17:32:00,19.0,13.0,-100.00,West,260,19.0,27.0,78,0.00,,,-99.99,,2013-02-19 22:32:00,
2013-02-19 17:42:00,19.0,15.0,-100.00,West,265,16.0,24.0,84,9.06,,,-99.99,,2013-02-19 22:42:00,
2013-02-19 17:52:00,18.0,15.0,-100.00,WSW,250,16.0,21.0,87,11.89,,,-99.99,,2013-02-19 22:52:00,
2013-02-19 18:01:00,18.0,15.0,-100.00,WSW,250,16.0,23.0,89,6.22,,,-99.99,,2013-02-19 23:01:00,
2013-02-19 18:11:00,18.0,15.0,-100.00,WSW,250,16.0,23.0,89,6.22,,,-99.99,,2013-02-19 23:11:00,
2013-02-19 18:21:00,18.0,15.0,-100.00,WSW,250,15.0,24.0,85,0.55,,,-99.99,,2013-02-19 23:21:00,
2013-02-19 18:32:00,18.0,15.0,-100.00,WSW,245,14.0,21.0,86,1.10,,,-99.99,,2013-02-19 23:32:00,
2013-02-19 18:42:00,18.0,14.0,-100.00,WSW,240,16.0,22.0,85,0.55,,,-99.99,,2013-02-19 23:42:00,
2013-02-19 18:52:00,18.0,13.0,-100.00,WSW,250,17.0,25.0,82,0.55,,,-99.99,,2013-02-19 23:52:00,
2013-02-19 19:01:00,18.0,13.0,-100.00,WSW,245,17.0,27.0,80,0.00,,,-99.99,,2013-02-20 00:01:00,
2013-02-19 19:11:00,18.0,13.0,-100.00,WSW,250,16.0,23.0,81,0.00,,,-99.99,,2013-02-20 00:11:00,
2013-02-19 19:21:00,18.0,13.0,-100.00,WSW,250,16.0,23.0,81,0.00,,,-99.99,,2013-02-20 00:21:00,
2013-02-19 19:32:00,17.0,12.0,-100.00,WSW,245,14.0,29.0,80,0.00,,,-99.99,,2013-02-20 00:32:00,
2013-02-19 19:42:00,17.0,12.0,-100.00,WSW,240,14.0,26.0,80,0.00,,,-99.99,,2013-02-20 00:42:00,
2013-02-19 19:52:00,17.0,12.0,-100.00,WSW,240,16.0,24.0,81,0.00,,,-99.99,,2013-02-20 00:52:00,
2013-02-19 20:02:00,17.0,13.0,-100.00,WSW,245,17.0,22.0,83,0.55,,,-99.99,,2013-02-20 01:02:00,
2013-02-19 20:11:00,17.0,13.0,-100.00,WSW,240,14.0,21.0,83,0.55,,,-99.99,,2013-02-20 01:11:00,
2013-02-19 20:21:00,17.0,13.0,-100.00,SW,235,14.0,22.0,83,0.00,,,-99.99,,2013-02-20 01:21:00,
2013-02-19 20:32:00,17.0,12.0,-100.00,SW,230,16.0,21.0,83,0.00,,,-99.99,,2013-02-20 01:32:00,
2013-02-19 20:42:00,17.0,12.0,-100.00,WSW,245,12.0,24.0,83,0.00,,,-99.99,,2013-02-20 01:42:00,
2013-02-19 20:52:00,16.0,12.0,-100.00,WSW,240,14.0,21.0,83,0.55,,,-99.99,,2013-02-20 01:52:00,
2013-02-19 21:02:00,16.0,12.0,-100.00,WSW,240,12.0,23.0,82,0.00,,,-99.99,,2013-02-20 02:02:00,
2013-02-19 21:11:00,16.0,12.0,-100.00,WSW,245,14.0,19.0,83,0.55,,,-99.99,,2013-02-20 02:11:00,
2013-02-19 21:21:00,16.0,12.0,-100.00,WSW,245,15.0,19.0,83,0.55,,,-99.99,,2013-02-20 02:21:00,
2013-02-19 21:32:00,16.0,12.0,-100.00,WSW,240,16.0,20.0,83,0.00,,,-99.99,,2013-02-20 02:32:00,
2013-02-19 21:42:00,16.0,12.0,-100.00,WSW,250,16.0,21.0,83,0.00,,,-99.99,,2013-02-20 02:42:00,
2013-02-19 21:52:00,16.0,12.0,-100.00,WSW,245,13.0,18.0,83,0.00,,,-99.99,,2013-02-20 02:52:00,
2013-02-19 22:02:00,17.0,13.0,-100.00,WSW,245,14.0,21.0,83,0.00,,,-99.99,,2013-02-20 03:02:00,
2013-02-19 22:12:00,17.0,13.0,-100.00,WSW,245,12.0,22.0,83,0.00,,,-99.99,,2013-02-20 03:12:00,
2013-02-19 22:22:00,17.0,12.0,-100.00,WSW,240,17.0,21.0,83,0.00,,,-99.99,,2013-02-20 03:22:00,
2013-02-19 22:32:00,17.0,13.0,-100.00,WSW,250,14.0,22.0,83,0.00,,,-99.99,,2013-02-20 03:32:00,
2013-02-19 22:42:00,17.0,13.0,-100.00,WSW,255,15.0,22.0,83,0.55,,,-99.99,,2013-02-20 03:42:00,
2013-02-19 22:52:00,17.0,13.0,-100.00,WSW,250,14.0,19.0,84,0.55,,,-99.99,,2013-02-20 03:52:00,
2013-02-19 23:01:00,17.0,13.0,-100.00,WSW,245,15.0,21.0,83,0.55,,,-99.99,,2013-02-20 04:01:00,
2013-02-19 23:11:00,17.0,13.0,-100.00,WSW,250,17.0,24.0,83,0.55,,,-99.99,,2013-02-20 04:11:00,
2013-02-19 23:21:00,17.0,13.0,-100.00,WSW,255,14.0,23.0,83,0.55,,,-99.99,,2013-02-20 04:21:00,
2013-02-19 23:32:00,17.0,13.0,-100.00,WSW,250,15.0,23.0,83,0.55,,,-99.99,,2013-02-20 04:32:00,
2013-02-19 23:42:00,17.0,13.0,-100.00,WSW,255,13.0,20.0,83,0.55,,,-99.99,,2013-02-20 04:42:00,
2013-02-19 23:52:00,17.0,13.0,-100.00,West,260,11.0,22.0,83,0.00,,,-99.99,,2013-02-20 04:52:00,